Location: Newark
(50.4878°N, 14.3742°E)
Time: 23:54:13
(UTC+00:00)

N. Korean satellite - Visible Passes

Search period start: 20 January 2020 00:00
Search period end: 30 January 2020 00:00
Orbit: 454 x 508 km, 97.2° (Epoch: 20 January)

Date Brightness Start Highest point End Pass type
(mag) Time Alt. Az. Time Alt. Az. Time Alt. Az.
20 Jan 7.4 04:43:42 10° NNE 04:47:09 51° E 04:50:37 10° S visible
20 Jan 9.7 16:58:17 10° SW 17:00:33 17° W 17:02:51 10° NW visible
21 Jan 8.8 04:18:30 10° NE 04:21:33 26° E 04:24:35 10° SSE visible
21 Jan 7.5 05:51:54 10° N 05:54:54 26° WNW 05:57:54 10° SW visible
21 Jan 8.6 16:31:48 10° SSW 16:34:53 31° W 16:37:59 10° NNW visible
22 Jan 9.7 03:53:48 10° NE 03:55:51 15° E 03:57:55 10° SE visible
22 Jan 6.7 05:26:06 10° N 05:29:30 49° WNW 05:32:58 10° SSW visible
23 Jan 6.5 05:00:29 10° NNE 05:04:03 83° ESE 05:07:39 10° SSW visible
23 Jan 10.1 17:16:37 10° WSW 17:17:36 11° W 17:18:35 10° WNW visible
24 Jan 7.9 04:35:07 10° NNE 04:38:30 41° E 04:41:55 10° S visible
24 Jan 8.0 06:09:09 10° NNW 06:11:39 18° WNW 06:14:11 10° WSW visible
24 Jan 9.5 16:49:14 10° SW 16:51:52 20° W 16:54:30 10° NW visible
25 Jan 9.1 04:10:02 10° NE 04:12:53 22° E 04:15:44 10° SE visible
25 Jan 7.2 05:43:07 10° N 05:46:19 32° WNW 05:49:34 10° SW visible
25 Jan 8.1 16:22:58 10° SSW 16:26:12 39° W 16:29:28 10° NNW visible
26 Jan 10.0 03:45:39 10° ENE 03:47:09 12° E 03:48:39 10° ESE visible
26 Jan 6.5 05:17:23 10° N 05:20:55 62° WNW 05:24:29 10° SSW visible
27 Jan 6.9 04:51:51 10° NNE 04:55:25 66° ESE 04:59:01 10° S visible
27 Jan 9.9 17:07:04 10° WSW 17:08:51 14° W 17:10:40 10° WNW visible
28 Jan 8.4 04:26:33 10° NNE 04:29:50 33° E 04:33:10 10° SSE visible
28 Jan 7.8 06:00:15 10° NNW 06:03:05 22° WNW 06:05:56 10° WSW visible
28 Jan 9.1 16:40:15 10° SSW 16:43:07 25° W 16:46:04 10° NW visible
29 Jan 9.5 04:01:35 10° NE 04:04:11 18° E 04:06:46 10° SE visible
29 Jan 7.0 05:34:20 10° N 05:37:44 40° WNW 05:41:09 10° SW visible
